{"data":{"norad_id":69961,"epoch":"2026-09-19T22:24:07.532064Z","epoch_age_seconds":66772,"freshness":"FRESH","line1":"1 69961U 26157U   26262.93342051  .00012633  00000+0  38439-3 0  9991","line2":"2 69961  53.1599 336.5378 0000974  89.3998 270.7116 15.34399958 11288","mean_motion":15.34399958,"eccentricity":9.74e-5,"inclination_deg":53.1599,"raan_deg":336.5378,"arg_perigee_deg":89.3998,"mean_anomaly_deg":270.7116,"bstar":0.00038439,"rev_number":1128,"period_min":93.84776065016,"perigee_km":462.0370671884,"apogee_km":463.36966289151,"semimajor_km":6840.84036504,"source":"CELESTRAK","updated_at":"2026-09-20T09:00:44.302652Z"}}